sat.trackr.live / text

‹ back to catalog

STARLINK-3965

NORAD 52550 · 2022-051T

PAYLOAD ACTIVE UNKNOWN

§ Identity

Operator
Country
US
Launch date
2022-05-13
Launch site
AFWTR
Launch vehicle
Mass (kg)
RCS (m²)

Purposes: comms

External: N2YO · Heavens-Above · Gunter

§ Orbital elements

Epoch: 2026-09-19T18:27:06.963840Z

Period
93.85 min
Inclination
53.1615°
Eccentricity
0.0000974
Mean motion
15.34388203 rev/d
Perigee alt
462.1 km
Apogee alt
463.4 km
Semi-major
6,840.9 km
B*
-5.1283e-5
RAAN
324.7936°
Arg perigee
85.4249°
Mean anomaly
274.6865°
Rev number
24,092

§ Raw data

STARLINK-39651 52550U 22051T   26262.76883060 -.00002108  00000+0 -51283-4 0  99982 52550  53.1615 324.7936 0000974  85.4249 274.6865 15.34388203240928

JSON: /api/v1/satellites/52550 · /tle

For live sub-satellite position, see the globe view (requires WebGL).

§ Visibility from observer

Set your observer location to see the next 7 days of passes ≥ 10°. The values pass through the URL so the page stays shareable.

No JS? Fill the form by hand. The geolocation button needs JavaScript.